GW3247 Weather Reports


Display with metric or nautical units.
time (UTC)temp
F
wind
direction
speed
MPH
gust
MPH
rain 1hr
in
rain 24hr
in
rain mn
in
humidity
%
barometer
mb
20260509180013 55 325 1.0 5.0 0.00 0.00 0.00 66 1020.2
20260509174509 55 347 3.0 6.0 0.00 0.00 0.00 73 1020.1
20260509173008 55 23 5.0 9.0 0.00 0.00 0.00 74 1020.2
20260509171507 55 6 6.0 10.0 0.00 0.00 0.00 75 1020.1
20260509170006 55 338 6.0 11.0 0.00 0.00 0.00 74 1020.3
20260509164605 55 343 6.0 15.0 0.00 0.00 0.00 72 1020.2
20260509163003 59 333 7.0 11.0 0.00 0.00 0.00 64 1020.2
20260509161502 60 220 6.0 8.0 0.00 0.00 0.00 41 1020.3
20260509160100 58 50 1.0 6.0 0.00 0.00 0.00 59 1020.5
20260509154558 60 281 5.0 10.0 0.00 0.00 0.00 56 1020.6
20260509153055 60 233 4.0 9.0 0.00 0.00 0.00 40 1020.8
20260509151557 57 47 5.0 9.0 0.00 0.00 0.00 59 1020.9
20260509150047 55 94 2.0 10.0 0.00 0.00 0.00 70 1021.0
20260509144645 55 62 7.0 9.0 0.00 0.00 0.00 73 1021.1
20260509143054 54 43 6.0 11.0 0.00 0.00 0.00 73 1021.2
20260509141542 54 64 7.0 10.0 0.00 0.00 0.00 73 1021.5
20260509140040 54 40 6.0 9.0 0.00 0.00 0.00 72 1021.5
20260509134559 54 35 9.0 11.0 0.00 0.00 0.00 71 1021.7
20260509133043 54 51 7.0 12.0 0.00 0.00 0.00 71 1022.1
20260509131537 54 51 6.0 12.0 0.00 0.00 0.00 69 1022.3
20260509130044 54 41 7.0 11.0 0.00 0.00 0.00 68 1022.3
20260509124535 54 60 7.0 12.0 0.00 0.00 0.00 67 1022.6
20260509123030 54 32 6.0 10.0 0.00 0.00 0.00 67 1022.9
20260509121541 54 53 6.0 10.0 0.00 0.00 0.00 64 1022.9
20260509120029 54 52 8.0 10.0 0.00 0.00 0.00 64 1023.0
20260509114533 54 31 8.0 11.0 0.00 0.00 0.00 60 1023.1
20260509113032 54 44 8.0 13.0 0.00 0.00 0.00 62 1023.1
20260509111523 53 25 6.0 10.0 0.00 0.00 0.00 65 1023.3
20260509110022 53 40 8.0 10.0 0.00 0.00 0.00 64 1023.4
20260509104535 53 23 9.0 13.0 0.00 0.00 0.00 63 1023.5
20260509103021 53 35 12.0 15.0 0.00 0.00 0.00 58 1023.4
20260509101522 55 50 5.0 6.0 0.00 0.00 0.00 46 1023.5
20260509100017 54 47 4.0 5.0 0.00 0.00 0.00 45 1023.7
20260509094527 54 52 2.0 3.0 0.00 0.00 0.00 44 1023.7
20260509093013 55 89 2.0 3.0 0.00 0.00 0.00 42 1023.8
20260509091514 54 128 2.0 6.0 0.00 0.00 0.00 45 1023.9
20260509090009 54 144 3.0 6.0 0.00 0.00 0.00 45 1023.9
20260509084507 53 98 2.0 6.0 0.00 0.00 0.00 45 1024.0
20260509083003 53 91 3.0 6.0 0.00 0.00 0.00 51 1024.0
20260509081611 52 131 2.0 4.0 0.00 0.00 0.00 52 1024.1
20260509080056 51 115 3.0 5.0 0.00 0.00 0.00 52 1024.1
20260509074557 51 131 3.0 6.0 0.00 0.00 0.00 53 1024.1
20260509073057 50 144 3.0 7.0 0.00 0.00 0.00 53 1024.2
20260509071555 49 125 5.0 8.0 0.00 0.00 0.00 54 1024.4
20260509070047 48 137 5.0 8.0 0.00 0.00 0.00 57 1024.5
20260509064551 48 117 5.0 8.0 0.00 0.00 0.00 56 1024.5
20260509063042 47 146 4.0 7.0 0.00 0.00 0.00 58 1024.3
20260509061537 47 119 6.0 9.0 0.00 0.00 0.00 59 1024.3
20260509060038 47 117 6.0 9.0 0.00 0.00 0.00 62 1024.2
20260509054544 46 115 6.0 9.0 0.00 0.00 0.00 65 1024.3
20260509053033 46 97 5.0 8.0 0.00 0.00 0.00 67 1024.5
20260509051533 45 113 6.0 9.0 0.00 0.00 0.00 66 1024.4
20260509050031 45 108 6.0 9.0 0.00 0.00 0.00 67 1024.4
20260509044529 46 101 5.0 9.0 0.00 0.00 0.00 66 1024.4
20260509043026 45 109 7.0 11.0 0.00 0.00 0.00 70 1024.3
20260509041532 44 111 4.0 8.0 0.00 0.00 0.00 75 1024.5
20260509040020 39 155 0.0 2.0 0.00 0.00 0.00 75 1024.3
20260509034519 38 231 0.0 1.0 0.00 0.00 0.00 75 1024.4
20260509033018 38 236 0.0 2.0 0.00 0.00 0.00 74 1024.4
20260509031516 38 229 0.0 2.0 0.00 0.00 0.00 74 1024.5
20260509030014 38 209 0.0 2.0 0.00 0.00 0.00 74 1024.5
20260509024513 40 233 1.0 2.0 0.00 0.00 0.00 72 1024.5
20260509023012 39 159 1.0 3.0 0.00 0.00 0.00 74 1024.5
20260509021510 38 198 1.0 2.0 0.00 0.00 0.00 74 1024.7
20260509020012 38 221 1.0 2.0 0.00 0.00 0.00 73 1025.0
20260509014512 38 213 0.0 2.0 0.00 0.00 0.00 73 1024.9
20260509013110 38 218 1.0 2.0 0.00 0.00 0.00 72 1025.0
20260509011601 38 226 1.0 1.0 0.00 0.00 0.00 71 1025.0
20260509010059 38 216 0.0 1.0 0.00 0.00 0.00 70 1025.1
20260509004556 39 248 0.0 1.0 0.00 0.00 0.00 68 1025.1
20260509003054 39 242 0.0 3.0 0.00 0.00 0.00 67 1025.2
20260509001550 40 215 1.0 2.0 0.00 0.00 0.00 66 1025.4
20260509000047 40 228 1.0 2.0 0.00 0.00 0.00 65 1025.3
20260508234543 41 238 0.0 2.0 0.00 0.00 0.00 64 1025.4
20260508233040 42 218 1.0 2.0 0.00 0.00 0.00 62 1025.4
20260508231538 43 213 0.0 2.0 0.00 0.00 0.00 60 1025.6
20260508230042 43 212 1.0 2.0 0.00 0.00 0.00 60 1025.6
20260508224535 43 201 2.0 3.0 0.00 0.00 0.00 58 1025.5
20260508223033 44 207 1.0 2.0 0.00 0.00 0.00 58 1025.5
20260508221530 44 196 2.0 4.0 0.00 0.00 0.00 53 1025.5
20260508220029 43 200 2.0 3.0 0.00 0.00 0.00 58 1025.4
20260508214530 44 221 1.0 1.0 0.00 0.00 0.00 58 1025.3
20260508213035 45 214 0.0 3.0 0.00 0.00 0.00 56 1025.3
20260508211534 46 195 2.0 2.0 0.00 0.00 0.00 50 1025.2
20260508210026 47 200 2.0 4.0 0.00 0.00 0.00 49 1025.3
20260508204522 46 200 1.0 2.0 0.00 0.00 0.00 52 1025.1
20260508203021 47 217 0.0 2.0 0.00 0.00 0.00 52 1025.0
20260508201520 47 208 1.0 1.0 0.00 0.00 0.00 51 1025.0
20260508200018 49 155 0.0 0.0 0.00 0.00 0.00 49 1024.8
20260508194528 50 155 0.0 1.0 0.00 0.00 0.00 41 1024.8
20260508193016 51 172 0.0 2.0 0.00 0.00 0.00 40 1024.6
20260508191516 52 165 2.0 4.0 0.00 0.00 0.00 39 1024.5
20260508190014 53 195 3.0 5.0 0.00 0.00 0.00 38 1024.4
20260508184511 54 171 2.0 5.0 0.00 0.00 0.00 38 1024.2
20260508183019 55 204 4.0 8.0 0.00 0.00 0.00 33 1024.0
20260508181510 56 199 5.0 10.0 0.00 0.00 0.00 33 1023.9